#timestamp,LO_Frequency,Hit,StdDev 
1634119215.1,286047000.8,N
1634119216.0,286047000.8,N
1634119235.8,286046999.8,N
1634119255.7,286047000.0,N
1634119275.5,286047000.3,N
1634119295.3,286046999.8,N
1634119315.2,286047000.4,N
1634119335.0,286047001.2,N
1634119335.9,286047001.2,N
1634119355.8,286047000.8,N
1634119375.6,286047000.9,N
1634119395.4,286047000.9,N
1634119415.3,286047000.9,N
1634119435.1,286046998.6,N
1634119455.8,286046999.3,N
1634119475.7,286046998.4,N
1634119495.5,286046998.1,N
1634119515.4,286046999.7,N
1634119535.2,286046999.9,N
1634119555.0,286046998.6,N
1634119555.9,286046998.6,N
1634119575.8,286046999.2,N
1634119595.6,286046999.1,N
1634119615.5,286046998.7,N
1634119635.3,286046999.3,N
1634119655.1,286046998.9,N
1634119675.9,286046998.3,N
1634119695.7,286046998.5,N
1634119715.5,286046998.1,N
1634119735.4,286047001.1,N
1634119755.2,286047000.0,N
1634119775.1,286047002.1,N
1634119776.0,286047002.1,N
1634119795.8,286047001.7,N
1634119815.6,286047002.0,N
1634119835.5,286047002.0,N
1634119855.3,286047001.3,N
1634119875.1,286047002.4,N
1634119895.9,286047002.8,N
1634119915.7,286047001.5,N
1634119935.6,286046999.8,N
1634119955.4,286046999.8,N
1634119975.2,286046999.8,N
1634119995.1,286047002.4,N
1634119996.0,286047002.4,N
1634120015.8,286047000.3,N
1634120035.6,286047000.4,N
1634120055.5,286047000.9,N
1634120075.3,286047000.6,N
1634120095.2,286046998.1,N
1634120115.9,286046998.7,N
1634120135.7,286046998.4,N
1634120155.6,286046997.0,N
1634120175.4,286046997.4,N
1634120195.2,286046999.4,N
1634120215.1,286047001.2,N
1634120216.0,286047001.2,N
1634120235.8,286047000.5,N
1634120255.7,286047000.8,N
1634120275.5,286047000.0,N
1634120295.3,286047000.2,N
1634120315.2,286046999.8,N
1634120335.0,286047001.5,N
1634120335.9,286047001.5,N
1634120355.8,286047001.3,N
1634120375.6,286047004.2,N
1634120395.4,286047003.8,N
1634120415.3,286047003.7,N
1634120435.1,286047004.3,N
1634120455.8,286047001.3,N
1634120475.7,286047001.9,N
1634120495.5,286047002.0,N
1634120515.4,286047000.3,N
1634120535.2,286047000.6,N
1634120555.0,286047000.2,N
1634120555.9,286047000.2,N
1634120575.8,286047000.4,N
1634120595.6,286047011.9,Y
1634120615.4,286047001.2,P
1634120635.3,286047000.8,P
1634120655.1,286046998.5,P
1634120675.9,286047000.7,N
1634120695.7,286047000.0,N
1634120715.5,286047000.9,N
1634120735.4,286047000.7,N
1634120755.2,286046998.1,N
1634120775.1,286047002.7,N
1634120776.0,286047002.7,N
1634120795.8,286047002.3,N
1634120815.6,286047001.0,N
1634120835.5,286047000.3,N
1634120855.3,286047000.0,N
1634120875.2,286046999.8,N
1634120895.9,286047000.7,N
1634120915.7,286046998.1,N
1634120935.6,286046998.8,N
1634120955.4,286046998.8,N
1634120975.2,286046998.1,N
1634120995.1,286047000.5,N
1634120996.0,286047000.5,N
1634121015.8,286047000.2,N
1634121035.7,286046999.8,N
1634121055.5,286047001.0,N
1634121075.3,286047002.3,N
1634121095.2,286046999.8,N
1634121115.9,286047000.4,N
1634121135.7,286046999.7,N
1634121155.6,286047001.9,N
1634121175.4,286047002.7,N
1634121195.3,286047002.5,N
1634121215.1,286047001.6,N
1634121216.0,286047001.6,N
1634121235.8,286047001.5,N
1634121255.7,286047004.3,Y
1634121275.5,286047001.4,P
1634121295.3,286047002.1,P
1634121315.2,286046999.7,N
1634121335.0,286047000.8,N
1634121335.9,286047000.8,N
1634121355.8,286046998.2,N
1634121375.6,286046998.2,N
1634121395.4,286047000.8,N
1634121415.3,286047002.2,N
1634121435.1,286047001.5,N
1634121455.9,286047004.0,Y
1634121475.7,286047002.4,P
1634121495.5,286047002.5,N
1634121515.4,286047004.4,P
1634121535.2,286047001.4,N
1634121555.0,286046999.8,N
1634121555.9,286046999.8,N
1634121575.8,286047000.1,N
1634121595.6,286047000.5,N
1634121615.5,286047001.1,N
1634121635.3,286047000.0,N
1634121655.1,286047002.8,N
1634121675.9,286047000.0,N
1634121695.7,286047000.3,N
1634121715.5,286046999.9,N
1634121735.4,286047000.7,N
1634121755.2,286046999.9,N
1634121775.1,286047001.0,N
1634121776.0,286047001.0,N
1634121795.8,286047000.6,N
1634121815.6,286047000.1,N
1634121835.5,286046999.7,N
1634121885.3,286047002.7,E
1634121895.3,286046999.8,N
1634121915.1,286046999.3,P
1634121916.0,286046999.3,N
1634121935.8,286046999.0,Y
1634121955.7,286047000.3,P
1634121975.5,286046998.1,P
1634121995.4,286046996.5,P
1634122015.2,286046996.6,N
1634122035.0,286046998.9,N
1634122035.9,286046998.9,N
1634122055.8,286046999.6,N
1634122075.1,286046996.6,N
1634122095.8,286046999.6,N
1634122115.7,286046997.1,N
1634122135.5,286046997.2,N
1634122155.4,286046997.4,N
1634122175.2,286046997.8,N
1634122195.0,286046997.9,N
1634122195.9,286046997.9,N
1634122215.8,286046993.3,Y
1634122235.6,286046997.5,P
1634122255.5,286046995.7,P
1634122275.3,286046998.0,N
1634122295.1,286046994.9,Y
1634122315.9,286046998.9,P
1634122335.7,286046998.8,N
1634122355.6,286046999.4,N
1634122375.4,286046999.4,N
1634122395.2,286046998.8,N
1634122415.1,286046998.8,N
1634122416.0,286046998.8,N
1634122435.8,286046996.9,Y
1634122455.7,286047001.2,P
1634122475.5,286046998.6,N
1634122495.3,286046998.9,N
1634122515.2,286046999.5,N
1634122535.9,286046997.3,N
1634122555.7,286046997.4,N
1634122575.6,286046996.7,N
1634122595.4,286046997.1,N
1634122615.2,286046996.9,N
1634122635.1,286046995.1,Y
1634122636.0,286046995.1,P
1634122655.8,286046998.0,N
1634122675.7,286046994.9,P
1634122695.5,286046997.1,N
1634122715.3,286046997.7,N
1634122735.2,286046996.5,N
1634122755.0,286046997.1,N
1634122755.9,286046997.1,N
1634122775.8,286046996.5,Y
1634122795.6,286047001.0,P
